TimeCDT,TemperatureF,Dew PointF,Humidity,Sea Level PressureIn,VisibilityMPH,Wind Direction,Wind SpeedMPH,Gust SpeedMPH,PrecipitationIn,Events,Conditions,WindDirDegrees,DateUTC
12:53 AM,69.8,69.8,100,29.97,10.0,SE,4.6,-,N/A,,Clear,130,2012-10-24 05:53:00
1:53 AM,69.1,69.1,100,29.98,10.0,SE,3.5,-,N/A,,Clear,130,2012-10-24 06:53:00
2:53 AM,68.0,68.0,100,29.98,10.0,Calm,Calm,-,N/A,,Clear,0,2012-10-24 07:53:00
3:53 AM,66.9,66.9,100,29.97,10.0,Calm,Calm,-,N/A,,Clear,0,2012-10-24 08:53:00
4:53 AM,66.0,66.0,100,29.97,9.0,Calm,Calm,-,0.01,,Clear,0,2012-10-24 09:53:00
5:53 AM,66.0,66.0,100,29.98,10.0,Calm,Calm,-,N/A,,Clear,0,2012-10-24 10:53:00
6:53 AM,64.9,64.9,100,29.99,10.0,Calm,Calm,-,N/A,,Partly Cloudy,0,2012-10-24 11:53:00
7:53 AM,66.0,66.0,100,30.00,10.0,ESE,4.6,-,N/A,,Partly Cloudy,110,2012-10-24 12:53:00
8:53 AM,71.1,71.1,100,30.02,10.0,ESE,3.5,-,N/A,,Partly Cloudy,110,2012-10-24 13:53:00
9:53 AM,77.0,70.0,79,30.02,10.0,SSE,8.1,-,N/A,,Partly Cloudy,150,2012-10-24 14:53:00
10:53 AM,79.0,66.9,66,30.02,10.0,South,10.4,-,N/A,,Scattered Clouds,170,2012-10-24 15:53:00
11:53 AM,82.0,66.0,58,30.01,10.0,SSE,10.4,16.1,N/A,,Scattered Clouds,160,2012-10-24 16:53:00
12:53 PM,84.9,64.9,51,29.99,10.0,South,12.7,16.1,N/A,,Scattered Clouds,180,2012-10-24 17:53:00
1:53 PM,84.9,66.0,53,29.96,10.0,South,9.2,-,N/A,,Scattered Clouds,180,2012-10-24 18:53:00
2:53 PM,81.0,68.0,65,29.94,10.0,ESE,12.7,-,N/A,,Scattered Clouds,120,2012-10-24 19:53:00
3:53 PM,81.0,68.0,65,29.93,10.0,ESE,10.4,-,N/A,,Scattered Clouds,110,2012-10-24 20:53:00
4:53 PM,81.0,68.0,65,29.92,10.0,ESE,11.5,-,N/A,,Scattered Clouds,110,2012-10-24 21:53:00
5:53 PM,79.0,66.9,66,29.93,10.0,SE,11.5,-,N/A,,Mostly Cloudy,130,2012-10-24 22:53:00
6:53 PM,77.0,70.0,79,29.92,10.0,ESE,8.1,-,N/A,,Mostly Cloudy,120,2012-10-24 23:53:00
7:53 PM,75.9,72.0,87,29.94,10.0,SE,6.9,-,N/A,,Mostly Cloudy,130,2012-10-25 00:53:00
8:53 PM,75.9,73.0,91,29.95,10.0,SE,8.1,-,N/A,,Mostly Cloudy,130,2012-10-25 01:53:00
9:53 PM,75.0,71.1,87,29.94,10.0,SE,5.8,-,N/A,,Mostly Cloudy,130,2012-10-25 02:53:00
10:53 PM,73.9,71.1,91,29.94,10.0,SE,4.6,-,N/A,,Mostly Cloudy,130,2012-10-25 03:53:00
11:53 PM,73.9,71.1,91,29.92,10.0,SE,4.6,-,N/A,,Scattered Clouds,130,2012-10-25 04:53:00